EW6606 Weather Reports


Display with metric or nautical units.
time (UTC)temp
F
wind
direction
speed
MPH
gust
MPH
rain 1hr
in
rain 24hr
in
rain mn
in
humidity
%
barometer
mb
20260508214350 64 89 1.0 1.0 0.00 0.00 0.00 77 1014.3
20260508213846 64 117 0.0 2.0 0.00 0.00 0.00 76 1014.5
20260508213343 64 95 0.0 1.0 0.00 0.00 0.00 76 1014.6
20260508212838 64 82 1.0 1.0 0.00 0.00 0.00 76 1014.9
20260508212336 64 133 1.0 2.0 0.00 0.00 0.00 76 1015.0
20260508211831 64 126 0.0 2.0 0.00 0.00 0.00 75 1014.6
20260508211327 64 104 0.0 1.0 0.00 0.00 0.00 75 1015.1
20260508210825 64 156 1.0 2.0 0.00 0.00 0.00 75 1014.9
20260508210321 64 106 0.0 2.0 0.00 0.00 0.00 75 1014.9
20260508205818 64 110 0.0 2.0 0.00 0.00 0.00 75 1014.9
20260508205314 64 115 1.0 2.0 0.00 0.00 0.00 74 1015.1
20260508204811 64 140 2.0 3.0 0.00 0.00 0.00 75 1015.2
20260508204308 64 130 3.0 3.0 0.00 0.00 0.00 75 1015.3
20260508203804 64 164 2.0 4.0 0.00 0.00 0.00 74 1015.1
20260508203300 64 164 3.0 3.0 0.00 0.00 0.00 74 1015.2
20260508202755 64 158 2.0 2.0 0.00 0.00 0.00 73 1015.1
20260508202253 64 160 1.0 2.0 0.00 0.00 0.00 73 1015.2
20260508201750 65 124 1.0 5.0 0.00 0.00 0.00 73 1014.8
20260508201247 65 99 1.0 2.0 0.00 0.00 0.00 73 1015.1
20260508200744 65 127 0.0 2.0 0.00 0.00 0.00 74 1015.3
20260508200240 64 89 0.0 1.0 0.00 0.00 0.00 73 1015.5
20260508195736 64 174 1.0 2.0 0.00 0.00 0.00 72 1015.4
20260508195233 64 73 0.0 2.0 0.00 0.00 0.00 72 1015.1
20260508194730 64 147 1.0 2.0 0.00 0.00 0.00 71 1015.2
20260508194226 64 147 1.0 2.0 0.00 0.00 0.00 71 1015.2
20260508193724 65 159 1.0 2.0 0.00 0.00 0.00 72 1015.3
20260508193220 65 113 1.0 4.0 0.00 0.00 0.00 70 1015.3
20260508192717 65 131 2.0 3.0 0.00 0.00 0.00 70 1015.5
20260508192214 65 141 2.0 3.0 0.00 0.00 0.00 71 1015.4
20260508191711 65 113 2.0 3.0 0.00 0.00 0.00 71 1015.7
20260508191208 65 107 1.0 4.0 0.00 0.00 0.00 71 1015.5
20260508190705 65 109 0.0 4.0 0.00 0.00 0.00 71 1015.4
20260508190201 65 75 0.0 1.0 0.00 0.00 0.00 70 1015.4
20260508185658 65 112 2.0 2.0 0.00 0.00 0.00 70 1015.5
20260508185155 65 165 1.0 2.0 0.00 0.00 0.00 69 1015.3
20260508184653 65 132 3.0 5.0 0.00 0.00 0.00 68 1015.1
20260508184150 65 109 3.0 5.0 0.00 0.00 0.00 69 1015.4
20260508183646 65 111 1.0 4.0 0.00 0.00 0.00 69 1015.5
20260508183142 65 121 2.0 3.0 0.00 0.00 0.00 68 1015.7
20260508182639 65 160 1.0 3.0 0.00 0.00 0.00 69 1015.9
20260508182135 65 175 2.0 3.0 0.00 0.00 0.00 68 1016.0
20260508181631 65 55 0.0 2.0 0.00 0.00 0.00 68 1015.8
20260508181128 65 114 1.0 3.0 0.00 0.00 0.00 67 1015.8
20260508180625 65 108 1.0 4.0 0.00 0.00 0.00 68 1016.1
20260508180122 65 115 1.0 3.0 0.00 0.00 0.00 67 1016.4
20260508175618 65 120 1.0 2.0 0.00 0.00 0.00 67 1016.2
20260508175115 65 98 2.0 3.0 0.00 0.00 0.00 67 1016.3
20260508174613 65 122 1.0 2.0 0.00 0.00 0.00 66 1016.4
20260508174109 65 145 0.0 3.0 0.00 0.00 0.00 65 1016.8
20260508173606 65 117 2.0 4.0 0.00 0.00 0.00 64 1016.6
20260508173102 65 123 2.0 4.0 0.00 0.00 0.00 64 1016.7
20260508172600 65 89 1.0 3.0 0.00 0.00 0.00 64 1016.9
20260508172056 65 114 2.0 3.0 0.00 0.00 0.00 64 1017.2
20260508171553 65 113 1.0 3.0 0.00 0.00 0.00 64 1017.1
20260508171049 65 111 3.0 5.0 0.00 0.00 0.00 63 1017.0
20260508170547 65 109 2.0 3.0 0.00 0.00 0.00 63 1016.8
20260508170044 65 152 0.0 4.0 0.00 0.00 0.00 61 1017.0
20260508165541 65 142 3.0 3.0 0.00 0.00 0.00 62 1017.4
20260508165038 65 159 2.0 3.0 0.00 0.00 0.00 63 1017.3
20260508164534 65 100 3.0 4.0 0.00 0.00 0.00 62 1017.3
20260508164031 65 160 3.0 4.0 0.00 0.00 0.00 65 1017.4
20260508163529 65 114 2.0 2.0 0.00 0.00 0.00 64 1017.2
20260508163025 66 112 0.0 3.0 0.00 0.00 0.00 65 1017.5
20260508162522 66 110 2.0 3.0 0.00 0.00 0.00 64 1017.6
20260508162019 66 107 1.0 3.0 0.00 0.00 0.00 63 1017.8
20260508161516 66 112 2.0 4.0 0.00 0.00 0.00 65 1017.4
20260508161013 65 82 1.0 4.0 0.00 0.00 0.00 65 1017.5
20260508160512 65 142 3.0 7.0 0.00 0.00 0.00 65 1017.5
20260508160008 65 113 4.0 5.0 0.00 0.00 0.00 63 1017.8
20260508155505 65 115 3.0 5.0 0.00 0.00 0.00 65 1017.5
20260508155002 64 112 3.0 7.0 0.00 0.00 0.00 66 1017.6
20260508154500 64 112 3.0 5.0 0.00 0.00 0.00 66 1017.9
20260508153956 64 108 2.0 5.0 0.00 0.00 0.00 66 1018.3
20260508153453 64 131 2.0 4.0 0.00 0.00 0.00 70 1018.1
20260508152949 64 95 1.0 2.0 0.00 0.00 0.00 72 1018.0
20260508152446 64 110 2.0 4.0 0.00 0.00 0.00 73 1018.1
20260508151942 64 94 3.0 6.0 0.00 0.00 0.00 73 1017.9
20260508151439 63 79 0.0 3.0 0.00 0.00 0.00 75 1018.0
20260508150935 63 46 1.0 4.0 0.00 0.00 0.00 75 1017.9
20260508150432 63 89 2.0 2.0 0.00 0.00 0.00 75 1017.9
20260508145928 63 98 2.0 3.0 0.00 0.00 0.00 78 1017.7
20260508145425 62 91 2.0 4.0 0.00 0.00 0.00 78 1017.8
20260508144921 62 89 0.0 6.0 0.00 0.00 0.00 78 1017.8
20260508144419 62 89 1.0 3.0 0.00 0.00 0.00 78 1017.9
20260508143917 61 94 1.0 2.0 0.00 0.00 0.00 79 1017.9
20260508143414 61 109 0.0 4.0 0.00 0.00 0.00 78 1018.0
20260508142910 61 117 2.0 3.0 0.00 0.00 0.00 79 1018.1
20260508142408 61 121 3.0 4.0 0.00 0.00 0.00 82 1018.1
20260508141904 61 76 2.0 3.0 0.00 0.00 0.00 83 1017.9
20260508141400 61 93 2.0 2.0 0.00 0.00 0.00 84 1018.4
20260508140858 60 129 0.0 2.0 0.00 0.00 0.00 84 1018.5
20260508140355 60 101 2.0 4.0 0.00 0.00 0.00 84 1018.2
20260508135850 60 116 2.0 3.0 0.00 0.00 0.00 86 1018.3
20260508135347 60 112 2.0 2.0 0.00 0.00 0.00 88 1018.3
20260508134843 59 69 0.0 2.0 0.00 0.00 0.00 88 1018.6
20260508134340 59 89 0.0 2.0 0.00 0.00 0.00 89 1018.5
20260508133837 59 75 0.0 1.0 0.00 0.00 0.00 89 1018.7
20260508133335 58 115 2.0 2.0 0.00 0.00 0.00 90 1018.6
20260508132832 58 127 0.0 1.0 0.00 0.00 0.00 90 1018.7
20260508132329 58 129 0.0 2.0 0.00 0.00 0.00 90 1018.7
20260508131826 58 77 0.0 2.0 0.00 0.00 0.00 91 1018.5
20260508131321 57 57 1.0 2.0 0.00 0.00 0.00 91 1018.6
20260508130818 57 95 1.0 2.0 0.00 0.00 0.00 91 1018.6
20260508130315 57 75 0.0 1.0 0.00 0.00 0.00 91 1018.7
20260508125811 56 78 1.0 1.0 0.00 0.00 0.00 92 1018.6
20260508125308 56 67 0.0 2.0 0.00 0.00 0.00 92 1018.5
20260508124806 56 55 1.0 2.0 0.00 0.00 0.00 92 1018.5
20260508124303 55 52 0.0 2.0 0.00 0.00 0.00 92 1018.5
20260508123801 55 78 0.0 2.0 0.00 0.00 0.00 92 1018.4
20260508123259 55 97 0.0 2.0 0.00 0.00 0.00 92 1018.5
20260508122755 55 71 0.0 2.0 0.00 0.00 0.00 92 1018.3
20260508122252 55 88 2.0 3.0 0.00 0.00 0.00 92 1018.3
20260508121749 55 51 2.0 2.0 0.00 0.00 0.00 92 1018.3
20260508121248 55 73 0.0 2.0 0.00 0.00 0.00 92 1018.3
20260508120744 55 37 0.0 2.0 0.00 0.00 0.00 92 1018.0
20260508120243 55 39 1.0 3.0 0.00 0.00 0.00 92 1018.0
20260508115740 55 58 0.0 2.0 0.00 0.00 0.00 92 1017.8
20260508115237 54 66 1.0 2.0 0.00 0.00 0.00 92 1017.6
20260508114727 54 55 1.0 2.0 0.00 0.00 0.00 92 1017.8
20260508114224 54 119 0.0 1.0 0.00 0.00 0.00 92 1017.5
20260508113721 54 89 0.0 1.0 0.00 0.00 0.00 92 1017.4
20260508113220 54 89 1.0 1.0 0.00 0.00 0.00 92 1017.4
20260508112715 54 91 1.0 2.0 0.00 0.00 0.00 92 1017.3
20260508112212 54 93 1.0 2.0 0.00 0.00 0.00 92 1017.3
20260508111709 54 93 1.0 2.0 0.00 0.00 0.00 92 1017.2
20260508111207 54 54 0.0 2.0 0.00 0.00 0.00 92 1017.0
20260508110704 54 93 1.0 2.0 0.00 0.00 0.00 92 1017.2
20260508110200 55 98 1.0 2.0 0.00 0.00 0.00 92 1017.0
20260508105655 54 97 1.0 2.0 0.00 0.00 0.00 92 1016.8
20260508105152 54 57 1.0 2.0 0.00 0.00 0.00 92 1016.8
20260508104649 55 99 0.0 2.0 0.00 0.00 0.00 92 1016.9
20260508104146 55 89 0.0 2.0 0.00 0.00 0.00 92 1016.8
20260508103643 55 97 1.0 4.0 0.00 0.00 0.00 92 1017.0
20260508103140 55 70 0.0 1.0 0.00 0.00 0.00 92 1017.1
20260508102637 55 129 0.0 2.0 0.00 0.00 0.00 92 1016.7
20260508102135 55 114 1.0 2.0 0.00 0.00 0.00 92 1016.9
20260508101632 55 116 1.0 2.0 0.00 0.00 0.00 92 1016.8
20260508101130 55 121 0.0 2.0 0.00 0.00 0.00 92 1016.7
20260508100627 55 89 0.0 2.0 0.00 0.00 0.00 92 1016.6
20260508100125 55 112 1.0 2.0 0.00 0.00 0.00 92 1016.7
20260508095621 55 44 0.0 1.0 0.00 0.00 0.00 92 1016.8
20260508095119 55 297 0.0 1.0 0.00 0.00 0.00 92 1016.6
20260508094615 55 46 1.0 3.0 0.00 0.00 0.00 92 1016.7
20260508094112 55 89 0.0 2.0 0.00 0.00 0.00 92 1016.6
20260508093609 55 89 0.0 2.0 0.00 0.00 0.00 92 1016.5
20260508093107 55 57 0.0 2.0 0.00 0.00 0.00 92 1016.2
20260508092604 55 333 0.0 2.0 0.00 0.00 0.00 92 1016.0
20260508092102 55 141 0.0 2.0 0.00 0.00 0.00 92 1015.8
20260508091559 55 59 1.0 2.0 0.00 0.00 0.00 92 1015.7
20260508091056 55 54 0.0 2.0 0.00 0.00 0.00 92 1015.6
20260508090554 55 86 0.0 1.0 0.00 0.00 0.00 92 1015.6
20260508090050 55 124 0.0 2.0 0.00 0.00 0.00 92 1015.3
20260508085547 55 58 1.0 2.0 0.00 0.00 0.00 92 1015.6
20260508085044 55 89 0.0 2.0 0.00 0.00 0.00 92 1015.6
20260508084541 55 89 0.0 2.0 0.00 0.00 0.00 92 1015.3
20260508084038 55 109 1.0 2.0 0.00 0.00 0.00 92 1015.4
20260508083535 55 166 0.0 2.0 0.00 0.00 0.00 92 1015.6
20260508083032 55 133 2.0 3.0 0.00 0.00 0.00 91 1015.1
20260508082528 55 86 1.0 2.0 0.00 0.00 0.00 91 1015.2
20260508082025 55 98 1.0 2.0 0.00 0.00 0.00 91 1015.4
20260508081523 55 64 1.0 2.0 0.00 0.00 0.00 91 1015.4
20260508081019 56 57 1.0 2.0 0.00 0.00 0.00 91 1015.1
20260508080517 56 86 2.0 2.0 0.00 0.00 0.00 91 1015.0
20260508080014 56 51 1.0 2.0 0.00 0.00 0.00 91 1015.1
20260508075510 56 92 2.0 2.0 0.00 0.00 0.00 91 1015.2
20260508075008 56 74 1.0 1.0 0.00 0.00 0.00 91 1015.3
20260508074506 56 60 0.0 0.0 0.00 0.00 0.00 91 1015.4
20260508074002 57 62 0.0 1.0 0.00 0.00 0.00 91 1015.4
20260508073459 57 117 0.0 1.0 0.00 0.00 0.00 91 1015.4
20260508072957 57 81 1.0 2.0 0.00 0.00 0.00 91 1015.7
20260508072453 57 95 0.0 1.0 0.00 0.00 0.00 91 1015.9
20260508071950 57 75 0.0 1.0 0.00 0.00 0.00 91 1016.0
20260508071448 57 117 0.0 1.0 0.00 0.00 0.00 91 1016.0
20260508070945 57 75 0.0 1.0 0.00 0.00 0.00 91 1016.0
20260508070443 57 98 0.0 1.0 0.00 0.00 0.00 91 1016.1
20260508065941 57 109 0.0 1.0 0.00 0.00 0.00 91 1015.9
20260508065439 57 89 0.0 1.0 0.00 0.00 0.00 91 1015.9
20260508064936 57 114 0.0 2.0 0.00 0.00 0.00 91 1015.9
20260508064434 57 112 0.0 1.0 0.00 0.00 0.00 91 1016.1
20260508063931 57 62 0.0 2.0 0.00 0.00 0.00 90 1015.9
20260508063429 57 113 1.0 2.0 0.00 0.00 0.00 90 1016.0
20260508062926 57 103 2.0 2.0 0.00 0.00 0.00 90 1015.9
20260508062424 57 55 0.0 1.0 0.00 0.00 0.00 90 1016.3
20260508061921 57 124 0.0 1.0 0.00 0.00 0.00 90 1016.1
20260508061418 57 164 0.0 1.0 0.00 0.00 0.00 90 1016.1
20260508060914 57 52 0.0 1.0 0.00 0.00 0.00 90 1015.9
20260508060412 57 112 1.0 1.0 0.00 0.00 0.00 90 1016.1
20260508055907 57 111 0.0 1.0 0.00 0.00 0.00 90 1016.2
20260508055405 58 122 1.0 2.0 0.00 0.00 0.00 89 1016.3
20260508054901 58 133 1.0 2.0 0.00 0.00 0.00 89 1016.2
20260508054358 58 76 0.0 2.0 0.00 0.00 0.00 89 1016.2
20260508053855 58 97 1.0 2.0 0.00 0.00 0.00 89 1016.4
20260508053352 58 128 1.0 2.0 0.00 0.00 0.00 89 1016.4
20260508052850 59 50 0.0 1.0 0.00 0.00 0.00 89 1016.6
20260508052347 59 95 1.0 2.0 0.00 0.00 0.00 89 1016.5
20260508051843 59 66 0.0 1.0 0.00 0.00 0.00 89 1016.7
20260508051338 59 126 1.0 2.0 0.00 0.00 0.00 88 1016.5
20260508050835 59 133 1.0 2.0 0.00 0.00 0.00 88 1016.5
20260508050333 59 25 0.0 1.0 0.00 0.00 0.00 88 1016.5
20260508045828 59 58 0.0 1.0 0.00 0.29 0.29 88 1016.2
20260508045326 59 55 1.0 2.0 0.00 0.29 0.29 88 1016.6
20260508044823 59 38 1.0 1.0 0.00 0.29 0.29 88 1016.9
20260508044319 59 62 1.0 1.0 0.00 0.29 0.29 88 1016.7
20260508043816 60 103 0.0 2.0 0.00 0.29 0.29 88 1016.8
20260508043313 59 37 0.0 0.0 0.00 0.29 0.29 88 1016.7
20260508042810 60 75 0.0 1.0 0.00 0.29 0.29 88 1016.5
20260508042308 59 97 1.0 2.0 0.00 0.29 0.29 87 1016.8
20260508041804 60 48 1.0 2.0 0.00 0.29 0.29 87 1017.0
20260508041301 60 50 0.0 0.0 0.00 0.29 0.29 87 1016.8
20260508040757 60 142 0.0 1.0 0.00 0.29 0.29 87 1016.9
20260508040255 60 124 0.0 1.0 0.00 0.29 0.29 87 1016.7
20260508035752 60 106 1.0 1.0 0.00 0.29 0.29 86 1016.5
20260508035249 60 75 0.0 1.0 0.00 0.29 0.29 86 1016.7
20260508034745 60 50 0.0 0.0 0.00 0.29 0.29 86 1016.4
20260508034243 60 117 0.0 1.0 0.00 0.29 0.29 86 1016.5
20260508033740 61 117 0.0 0.0 0.00 0.29 0.29 86 1016.8
20260508033238 61 116 0.0 2.0 0.00 0.29 0.29 86 1016.7
20260508032735 61 47 0.0 1.0 0.00 0.29 0.29 86 1016.6
20260508032232 61 80 1.0 2.0 0.00 0.29 0.29 87 1016.6
20260508031729 61 55 0.0 1.0 0.00 0.29 0.29 87 1016.6
20260508031225 61 75 1.0 1.0 0.00 0.29 0.29 87 1016.3
20260508030722 61 95 1.0 2.0 0.00 0.29 0.29 87 1016.5
20260508030220 61 48 2.0 2.0 0.00 0.29 0.29 87 1016.4
20260508025715 61 42 1.0 2.0 0.00 0.29 0.29 86 1016.3
20260508025213 61 104 0.0 1.0 0.00 0.29 0.29 86 1016.2
20260508024709 62 108 1.0 2.0 0.00 0.29 0.29 86 1016.3
20260508024206 62 45 0.0 1.0 0.00 0.29 0.29 86 1016.5
20260508023702 62 22 0.0 1.0 0.00 0.29 0.29 86 1016.3
20260508023200 62 117 0.0 2.0 0.00 0.29 0.29 86 1016.2
20260508022655 62 75 0.0 1.0 0.00 0.29 0.29 86 1016.3
20260508022153 62 72 0.0 1.0 0.00 0.29 0.29 86 1015.9
20260508021649 62 62 0.0 1.0 0.00 0.29 0.29 85 1016.1
20260508021144 62 75 0.0 1.0 0.00 0.29 0.29 85 1015.9
20260508020642 63 66 0.0 1.0 0.00 0.29 0.29 84 1015.9
20260508020140 63 87 1.0 1.0 0.00 0.29 0.29 84 1016.0
20260508015637 62 104 0.0 1.0 0.00 0.29 0.29 84 1015.9
20260508015134 63 116 0.0 1.0 0.00 0.29 0.29 83 1016.0
20260508014630 63 124 0.0 2.0 0.00 0.29 0.29 82 1015.9
20260508014126 63 119 0.0 2.0 0.00 0.29 0.29 82 1015.7
20260508013623 64 115 0.0 1.0 0.00 0.29 0.29 82 1015.7
20260508013120 64 132 0.0 1.0 0.00 0.29 0.29 82 1015.9
20260508012617 64 120 1.0 2.0 0.00 0.29 0.29 81 1015.6
20260508012114 64 129 0.0 1.0 0.00 0.29 0.29 81 1015.8
20260508011613 64 112 1.0 2.0 0.00 0.29 0.29 80 1015.6
20260508011109 65 104 1.0 2.0 0.00 0.29 0.29 80 1015.7
20260508010606 65 106 0.0 1.0 0.00 0.29 0.29 80 1015.7
20260508010105 65 50 0.0 1.0 0.00 0.29 0.29 80 1015.8
20260508005600 65 37 0.0 1.0 0.00 0.29 0.29 79 1015.6
20260508005057 65 129 0.0 1.0 0.00 0.29 0.29 79 1015.7
20260508004553 66 148 1.0 1.0 0.00 0.29 0.29 78 1015.3
20260508004050 66 75 0.0 1.0 0.00 0.29 0.29 78 1015.2
20260508003546 66 15 0.0 1.0 0.00 0.29 0.29 78 1015.4
20260508003044 66 25 0.0 1.0 0.00 0.29 0.29 77 1015.3
20260508002540 66 25 0.0 1.0 0.00 0.29 0.29 77 1015.3
20260508002038 66 62 0.0 1.0 0.00 0.29 0.29 77 1015.3
20260508001533 67 50 0.0 1.0 0.00 0.29 0.29 76 1015.3
20260508001029 67 62 0.0 1.0 0.00 0.29 0.29 76 1015.4
20260508000525 67 89 0.0 2.0 0.00 0.29 0.29 75 1015.3
20260508000023 67 31 2.0 2.0 0.00 0.29 0.29 75 1015.4
20260507235519 68 59 0.0 3.0 0.00 0.29 0.29 74 1015.1
20260507235017 68 34 2.0 2.0 0.00 0.29 0.29 74 1014.9
20260507234513 69 47 2.0 2.0 0.00 0.29 0.29 74 1014.8
20260507234010 69 23 1.0 2.0 0.00 0.29 0.29 76 1014.9
20260507233506 69 18 1.0 2.0 0.00 0.29 0.29 76 1015.0
20260507233005 69 81 1.0 2.0 0.00 0.29 0.29 76 1014.9
20260507232501 69 25 1.0 2.0 0.00 0.29 0.29 75 1015.0
20260507231959 69 78 0.0 1.0 0.00 0.29 0.29 75 1014.8
20260507231455 69 240 0.0 1.0 0.00 0.29 0.29 74 1014.8
20260507230952 69 61 1.0 2.0 0.00 0.29 0.29 73 1014.6
20260507230449 70 142 0.0 1.0 0.00 0.29 0.29 72 1014.6
20260507225944 70 132 0.0 2.0 0.00 0.29 0.29 71 1014.5
20260507225440 70 352 1.0 2.0 0.00 0.29 0.29 70 1014.6
20260507224937 71 278 2.0 3.0 0.00 0.29 0.29 70 1014.4
20260507224432 71 323 2.0 5.0 0.00 0.29 0.29 70 1014.4
20260507223930 71 42 1.0 2.0 0.00 0.29 0.29 71 1014.2
20260507223425 71 50 0.0 1.0 0.00 0.29 0.29 70 1014.2
20260507222922 71 64 2.0 7.0 0.00 0.29 0.29 69 1014.4
20260507222420 71 37 0.0 4.0 0.00 0.29 0.29 69 1014.2
20260507221916 71 15 2.0 6.0 0.00 0.29 0.29 71 1014.2
20260507221413 70 25 0.0 3.0 0.00 0.29 0.29 71 1014.1
20260507220908 70 106 0.0 3.0 0.00 0.29 0.29 71 1014.3
20260507220407 71 240 0.0 4.0 0.00 0.29 0.29 70 1014.3
20260507215903 71 23 0.0 3.0 0.00 0.29 0.29 69 1014.3
20260507215400 72 34 0.0 3.0 0.00 0.29 0.29 70 1014.4
20260507214857 72 41 2.0 3.0 0.00 0.29 0.29 71 1014.3